Location: Bonaustraße
(48.4603°N, 11.9280°E)
Time: 19:17:34
(UTC+01:00)

Envisat - Pass Details

Date: 24 January 2021
Orbit: 764 x 766 km, 98.1° (Epoch: 05 March)

Event Time Altitude Azimuth Distance (km) Brightness Sun altitude
Rises 06:09:41 0° 13° (NNE) 3,245 6.3 -16.6°
Reaches altitude 10° 06:12:00 10° 14° (NNE) 2,314 5.5 -16.2°
Maximum altitude 06:17:07 90° 299° (WNW) 772 3.0 -15.4°
Drops below altitude 10° 06:22:12 10° 196° (SSW) 2,296 5.4 -14.6°
Sets 06:24:29 0° 196° (SSW) 3,217 6.2 -14.2°
